GFSMA_700_rhum_051.txt.gz
RH
48 47 47 47 48 46 44 40 37 34 32 32 34 34 32 28 28 29 24 18 14 12 11 10 11 12 13 14 15 15 15 14 14 14 14 14 14 14 14 14 13 13 12
50 50 49 49 50 52 55 51 40 35 32 33 35 33 29 29 29 24 20 16 13 12 12 14 16 17 17 16 16 16 16 16 15 15 15 14 14 14 14 14 14 14 13
50 49 49 48 49 50 54 50 52 38 33 36 34 31 31 30 28 28 26 22 17 14 14 16 18 18 18 18 18 18 17 17 17 16 16 16 16 15 16 16 15 15 15
53 52 50 50 50 51 51 52 51 40 35 34 33 32 33 32 32 31 31 31 27 21 17 18 18 19 20 20 19 19 18 18 17 17 17 16 16 16 16 16 16 16 16
51 50 49 47 49 53 53 49 45 43 37 35 33 35 36 34 30 30 34 36 34 31 25 21 20 20 20 20 20 19 19 18 18 17 17 16 16 16 15 15 14 13 13
44 44 51 56 60 56 61 60 56 52 40 36 37 37 38 34 40 42 44 44 43 40 34 26 22 20 19 19 19 19 18 18 17 16 16 15 14 13 12 11 11 10 9
44 49 53 60 62 58 66 68 70 62 44 37 41 42 40 44 50 50 50 48 47 45 42 34 27 22 21 20 19 18 18 17 16 15 13 12 11 10 10 10 10 10 10
48 50 59 64 63 65 75 79 79 76 68 52 45 46 45 51 54 51 50 50 50 48 46 39 29 22 21 19 18 17 16 15 13 12 12 12 12 11 11 11 11 10 10
53 56 62 62 63 71 87 94 88 86 87 62 56 50 53 52 51 51 49 49 51 52 50 39 26 21 20 18 17 16 14 14 13 13 13 13 12 12 11 10 9 8 7
57 63 57 61 65 72 86 94 93 85 75 51 53 55 58 58 55 53 51 50 54 55 52 40 25 20 19 18 16 15 14 14 14 14 13 11 10 8 7 6 6 5 5
59 58 60 64 70 79 84 89 97 91 67 52 55 57 59 58 57 55 53 54 56 56 51 31 21 19 18 16 16 15 15 14 12 10 9 7 6 5 5 5 4 4 4
61 60 58 62 71 82 90 87 94 89 89 57 58 60 61 60 59 58 55 54 55 57 46 22 19 17 16 16 16 15 13 11 10 8 7 6 5 5 4 4 3 2 2
64 60 56 58 71 81 96 96 98 94 91 58 61 64 65 63 62 60 59 61 60 57 35 20 18 17 16 16 14 11 9 8 6 6 5 4 4 3 3 2 2 2 2
68 63 56 58 75 92 100 98 91 96 74 60 63 67 67 66 64 63 66 66 61 38 21 19 18 17 15 12 10 8 6 6 5 4 4 3 2 2 2 3 3 4 5
70 62 55 58 80 99 100 96 97 100 91 64 67 71 70 69 68 70 71 61 27 21 19 19 17 14 12 9 7 6 5 4 4 3 3 3 3 4 5 6 7 9 20
61 62 54 65 86 100 92 94 92 98 79 66 73 73 72 71 73 74 59 24 20 19 19 16 13 10 8 6 5 5 4 3 3 3 4 4 6 8 10 13 22 39 41
66 57 66 94 99 97 100 100 100 96 71 72 75 74 76 78 78 55 22 20 19 17 15 12 9 7 6 5 4 3 3 3 4 4 7 10 13 20 28 44 49 50 50
64 70 94 90 100 99 100 100 100 94 77 78 81 80 86 82 46 21 20 19 16 13 10 8 6 5 4 3 3 3 4 5 7 11 18 26 44 46 54 55 56 52 46
82 100 100 94 97 100 100 100 83 80 83 91 86 91 87 34 21 20 18 15 11 8 6 6 5 4 3 4 4 4 5 8 15 29 46 51 56 59 62 60 53 48 50
97 100 94 98 100 100 99 98 89 84 94 92 95 78 25 21 20 17 13 10 7 6 5 4 3 3 4 5 6 7 7 21 38 52 53 56 59 62 62 56 54 56 50
99 99 88 100 100 98 93 85 90 96 97 97 64 22 20 19 15 11 8 6 6 5 4 4 4 6 6 7 10 19 40 49 49 52 50 55 57 57 54 56 59 53 59
95 100 100 99 97 87 83 96 95 99 94 24 21 20 17 13 10 7 6 6 5 4 4 6 8 8 10 22 50 55 54 51 46 57 53 52 59 55 55 60 54 56 63
100 100 99 96 96 100 94 98 98 43 22 21 19 15 12 9 7 6 6 5 5 5 9 10 9 18 42 57 56 55 60 64 64 63 62 56 69 60 66 60 55 62 68
100 98 94 98 98 99 98 57 23 22 20 16 14 10 8 6 6 6 5 5 6 8 10 11 32 52 56 59 66 71 72 71 68 71 77 72 68 60 61 56 55 58 68
97 99 96 99 99 52 23 23 22 18 15 12 9 7 6 6 6 5 5 6 7 9 13 43 58 60 68 73 75 69 74 67 62 65 79 79 68 61 51 43 57 61 70
96 100 98 46 24 23 23 19 16 14 11 8 7 7 7 6 5 5 6 7 8 14 45 53 61 68 70 74 78 81 82 76 77 67 90 77 71 76 44 43 48 58 68

GFSMA_700_rhum_054.txt.gz
RH
45 45 47 47 48 50 50 50 47 42 37 34 32 31 32 32 29 30 27 22 18 15 13 12 13 14 15 16 16 16 16 15 15 15 14 14 14 14 14 14 14 14 14
48 48 48 49 49 50 51 55 54 53 48 37 33 34 34 31 31 29 28 27 24 20 16 14 15 17 18 18 18 17 17 17 17 17 17 16 16 16 15 15 14 14 14
49 49 49 48 49 49 50 50 49 49 50 44 36 36 34 31 32 33 34 33 32 29 25 20 18 18 18 19 19 19 19 19 19 18 18 18 17 16 16 16 15 15 15
52 50 51 52 51 49 46 47 48 48 47 43 40 37 34 34 35 35 31 33 37 37 35 31 27 24 22 20 20 20 19 20 19 19 18 18 17 17 16 16 16 16 16
50 49 52 50 48 47 46 46 52 56 54 49 43 38 36 37 38 36 41 44 46 45 44 43 39 34 28 23 21 20 19 19 19 18 18 18 17 16 16 15 15 15 14
51 50 47 45 48 52 56 56 61 64 67 57 44 40 42 42 41 45 49 50 50 49 48 47 45 43 38 32 27 24 22 20 19 18 17 17 16 15 14 14 13 12 11
54 54 48 46 54 63 67 62 69 76 77 66 50 43 45 49 49 53 54 52 50 49 50 50 50 47 41 33 27 23 21 19 18 17 16 15 14 13 12 12 11 11 10
53 64 57 51 60 64 67 73 83 87 84 84 76 62 55 52 55 54 55 52 50 49 48 49 51 51 48 40 28 22 19 18 17 16 15 14 14 13 13 12 12 12 11
55 64 66 60 59 64 68 74 85 95 98 92 91 76 61 56 54 57 55 53 52 50 49 49 52 53 52 43 29 21 19 18 16 16 15 14 14 14 13 13 12 11 10
59 70 69 65 68 67 66 74 82 92 94 95 84 68 54 56 58 56 56 54 54 53 52 54 56 56 53 39 24 19 18 17 16 16 16 15 14 13 12 10 10 9 8
67 73 72 67 64 62 67 74 79 88 96 98 92 63 55 59 62 63 60 58 57 57 57 59 61 58 42 25 20 18 18 17 17 16 14 12 11 10 9 8 7 6 6
69 73 73 68 66 62 64 77 84 86 96 89 100 93 72 61 63 64 62 61 60 60 63 66 62 46 26 20 19 18 18 17 15 14 12 11 9 8 7 6 6 5 5
75 76 76 76 71 67 65 73 83 92 99 97 100 98 90 62 64 66 65 64 61 60 62 65 52 26 20 19 19 17 16 14 12 10 8 7 6 5 5 4 4 3 3
75 78 79 82 73 68 64 66 80 89 100 93 100 99 73 65 68 69 68 67 64 64 65 60 30 20 19 19 17 14 11 9 8 6 5 5 4 3 2 2 2 2 2
67 78 82 83 77 70 65 71 97 92 91 99 99 99 95 71 70 70 71 69 70 69 64 34 20 20 19 16 12 10 8 6 5 4 3 2 2 2 2 2 3 4 4
70 82 85 84 83 75 62 96 91 99 99 98 97 100 87 83 76 75 73 76 77 61 28 20 20 17 13 10 8 6 5 4 3 2 2 2 2 3 3 5 6 9 13
72 84 86 88 80 84 96 92 100 100 98 100 100 98 98 81 80 80 81 82 52 22 21 20 15 11 8 6 5 4 3 3 3 3 3 3 4 6 9 13 21 31 42
78 87 91 86 86 99 90 100 90 100 100 99 99 90 85 83 86 88 83 39 21 20 18 14 10 7 5 4 3 3 3 4 4 5 5 9 16 25 35 43 46 48 51
88 90 86 88 99 99 100 97 100 100 96 99 94 97 99 92 93 82 27 21 19 15 11 8 6 5 4 3 3 3 4 4 7 21 39 44 49 51 53 53 53 55 54
93 98 96 100 97 100 100 100 100 100 99 97 93 98 98 93 44 22 21 18 13 10 7 5 4 4 3 3 4 4 6 26 36 46 47 46 52 54 59 59 60 58 55
99 99 100 100 100 100 100 99 99 98 96 98 97 98 52 22 22 19 15 11 8 6 5 4 4 3 4 5 6 22 33 33 34 49 46 38 52 52 56 58 58 56 57
98 100 100 99 98 100 100 99 97 96 94 95 76 23 22 20 16 13 9 6 6 5 4 4 4 5 6 8 36 38 33 30 26 46 42 38 54 48 55 58 59 62 67
100 100 100 99 99 100 98 97 89 93 81 26 23 21 17 14 10 7 6 5 5 4 5 6 7 8 12 42 44 37 38 42 42 51 52 42 58 48 55 54 62 70 71
99 100 99 99 99 97 92 97 87 32 23 22 19 15 12 8 6 5 4 3 4 4 7 8 9 21 46 47 46 45 48 49 47 57 68 47 57 49 53 56 69 71 68
98 98 98 99 93 95 78 26 23 23 20 16 13 9 7 6 4 3 3 4 5 7 8 10 37 52 56 60 62 58 61 56 48 51 73 63 62 56 50 51 63 68 74
98 96 98 96 53 24 24 24 20 17 14 10 7 6 5 3 3 5 6 6 6 7 11 45 56 61 64 66 71 74 74 70 68 47 74 65 62 70 39 39 49 58 68

GFSMA_700_rhum_057.txt.gz
RH
47 46 46 48 48 48 50 51 54 53 50 48 42 35 34 34 32 31 30 28 26 26 24 20 16 15 15 16 17 17 17 17 16 16 16 16 16 15 15 15 14 14 14
48 48 49 50 51 50 51 51 53 54 53 52 48 43 36 35 34 32 31 32 33 32 30 27 25 21 19 18 18 18 18 19 19 19 18 18 18 18 18 17 16 16 15
50 51 52 52 51 50 50 51 51 52 50 50 49 45 41 37 35 34 35 35 31 31 34 35 34 32 30 27 24 22 21 20 20 20 19 19 19 18 18 17 17 16 16
52 52 52 52 52 53 53 51 50 50 49 49 48 46 43 39 36 37 37 34 38 42 44 44 43 43 42 40 36 32 28 24 21 20 19 19 18 18 18 18 17 17 16
52 53 54 54 51 53 54 53 50 50 50 56 59 53 44 40 39 41 40 44 48 50 49 49 47 47 46 45 43 40 35 30 26 24 22 21 20 19 18 17 16 16 15
51 50 55 52 48 50 53 54 60 57 61 68 74 62 50 43 42 44 45 50 53 53 52 49 48 48 48 49 48 46 41 33 28 23 21 19 18 17 16 16 15 14 14
58 56 55 55 52 52 59 60 62 66 74 82 78 71 70 56 47 51 52 51 54 59 52 49 48 48 48 49 51 51 48 42 32 24 20 18 17 16 16 15 14 14 13
60 60 61 61 60 58 59 62 68 71 78 90 88 89 83 73 69 58 57 59 58 56 53 51 50 50 49 49 51 53 52 45 31 22 19 18 17 16 16 15 15 14 14
57 62 65 72 64 61 60 71 72 70 76 88 96 95 92 89 80 68 61 62 61 59 56 54 53 51 50 50 51 53 52 44 27 20 18 17 17 16 16 16 15 14 14
63 66 69 73 75 70 71 75 79 73 75 82 93 97 90 86 66 58 59 60 63 61 60 58 56 55 54 54 55 56 50 34 22 19 18 18 18 17 16 15 14 13 13
70 72 72 73 77 76 76 74 74 75 80 88 97 99 100 93 84 64 63 63 65 65 64 62 61 59 58 59 59 54 35 22 20 19 19 18 17 15 14 13 12 10 10
90 75 69 75 79 91 84 77 79 75 79 86 98 99 100 99 92 78 71 68 69 70 69 67 65 65 65 64 56 36 22 20 20 19 18 16 14 12 11 9 7 7 6
89 86 77 72 76 87 86 80 75 76 77 92 98 95 98 100 99 100 85 70 69 71 72 71 70 70 67 57 32 20 20 20 18 16 14 12 10 8 7 6 5 4 4
93 93 84 77 77 87 91 85 79 80 89 90 100 100 100 98 100 99 79 79 73 72 71 73 71 69 62 36 21 21 20 17 14 11 8 6 6 5 4 3 3 2 2
82 85 83 79 78 80 86 91 81 87 99 91 100 100 100 100 98 98 98 84 85 75 73 74 72 62 33 22 22 19 16 13 9 7 6 4 3 2 2 2 2 2 2
64 76 80 82 78 83 96 95 90 95 99 84 100 97 100 100 94 94 96 98 91 83 77 72 66 28 22 21 16 13 9 7 6 4 3 3 2 2 2 2 2 3 3
56 68 73 82 85 90 96 94 97 100 94 100 96 100 100 95 98 99 84 87 85 85 83 64 23 21 18 14 9 6 5 4 3 3 2 2 2 3 6 11 16 19 21
60 74 85 84 83 94 98 96 100 88 99 100 99 99 99 99 98 98 98 94 93 88 30 22 20 15 11 7 6 4 3 3 3 3 4 7 19 29 29 29 28 32 35
79 86 94 80 88 97 100 100 98 100 100 100 100 100 99 98 98 98 96 92 38 22 20 16 13 8 6 5 4 3 3 3 4 7 28 31 29 29 28 32 36 36 39
78 94 79 97 100 100 99 100 100 100 100 99 100 100 98 98 97 93 42 22 21 17 13 9 6 5 4 3 3 3 3 4 8 34 32 23 25 32 33 36 33 34 40
91 72 93 100 100 98 100 99 99 100 98 98 99 99 98 96 37 23 22 17 14 10 7 5 4 3 3 4 4 5 5 15 28 32 30 28 38 40 42 38 37 37 44
87 65 100 99 98 92 100 100 99 98 98 98 100 96 31 23 22 17 14 10 7 6 4 4 4 4 4 6 6 8 28 30 18 34 39 33 41 38 44 44 47 52 56
60 100 99 100 100 99 99 99 98 98 98 96 45 24 22 18 14 11 7 6 4 4 4 5 5 6 6 7 18 35 34 29 29 41 47 30 41 36 46 46 57 64 68
100 100 99 100 99 97 99 97 98 88 35 24 23 18 15 11 8 6 5 4 4 6 6 6 7 8 14 37 42 34 31 34 39 52 68 37 46 38 42 45 63 68 70
100 100 100 97 98 99 97 78 27 24 23 18 16 12 8 7 5 4 4 4 6 7 7 8 12 37 48 48 52 45 52 54 51 54 70 72 55 47 48 47 60 65 65
99 96 96 98 97 42 25 26 23 18 16 13 9 7 6 4 4 4 5 6 6 7 7 20 49 52 53 57 68 75 75 72 75 62 77 83 68 71 51 45 46 56 61

GFSMA_700_rhum_063.txt.gz
RH
50 50 49 48 48 49 49 50 50 51 52 56 54 53 52 49 45 42 37 34 31 30 32 32 30 28 30 32 32 32 31 29 26 24 21 20 19 18 18 18 18 18 18
52 52 51 50 50 50 51 52 52 53 53 53 52 51 50 52 50 46 40 36 33 33 33 32 34 38 40 40 40 39 39 39 38 37 35 32 27 23 21 20 19 19 18
49 52 52 52 52 53 54 55 56 53 53 53 52 50 48 50 50 47 43 39 36 35 35 35 40 45 46 45 45 44 43 43 43 42 40 37 36 34 30 28 25 23 20
50 52 52 53 54 56 56 57 54 55 55 54 51 48 50 54 55 51 45 41 40 39 40 42 48 49 50 56 48 44 43 42 42 43 44 44 43 39 36 32 27 24 22
52 52 54 56 58 56 56 56 56 56 56 54 52 56 55 54 59 54 48 52 47 43 43 46 51 52 54 55 48 47 46 46 45 44 43 43 44 44 41 37 32 26 22
53 54 56 57 58 57 56 58 58 57 57 55 58 64 61 60 67 62 66 65 59 50 52 55 54 55 54 52 50 50 49 49 48 47 47 47 48 47 45 40 34 27 22
55 59 62 60 58 58 58 63 62 58 59 60 65 70 68 66 72 73 77 75 72 72 63 57 59 60 58 56 54 53 52 52 51 50 49 49 51 50 46 39 32 26 21
61 60 58 62 60 61 63 63 65 64 64 66 74 80 71 72 77 84 86 84 83 80 74 69 63 61 62 61 60 59 58 57 56 54 52 52 53 52 45 35 26 22 19
58 67 67 67 65 66 68 66 68 68 72 70 81 88 85 80 85 89 96 93 86 80 73 66 64 63 62 63 63 63 61 61 58 56 54 54 55 53 43 29 22 20 19
67 65 66 71 80 78 73 72 73 76 78 77 82 88 95 86 85 80 86 89 85 94 87 78 75 72 74 71 66 65 65 64 63 61 58 58 57 50 34 24 21 20 20
78 78 71 72 76 74 77 75 75 77 79 83 87 90 99 98 97 93 85 97 98 83 96 89 86 79 85 86 73 65 65 66 65 65 65 62 57 40 25 22 22 21 20
64 67 71 69 66 83 79 74 76 83 82 86 88 87 93 98 98 93 91 91 98 99 100 96 86 93 84 78 74 74 77 72 76 72 69 65 52 29 22 22 21 19 17
54 57 60 62 67 68 80 84 83 81 80 86 94 99 100 96 94 90 90 85 100 100 98 100 99 100 96 91 95 91 89 89 78 76 71 44 25 23 21 19 17 14 10
62 62 63 68 74 78 80 96 99 87 84 87 91 100 100 99 98 94 87 100 100 97 99 100 99 98 99 99 94 97 94 88 85 71 32 23 22 18 15 11 8 8 7
59 63 63 64 66 74 79 88 99 89 92 92 95 98 99 100 99 91 96 96 100 99 100 99 99 99 99 100 98 96 93 86 56 24 22 19 15 11 8 7 6 5 4
40 40 41 53 62 65 63 75 81 100 96 95 95 99 98 100 100 98 99 100 99 100 100 99 100 98 100 99 95 91 73 31 23 19 14 9 8 6 5 4 3 3 3
44 46 44 37 52 62 70 73 79 88 99 97 95 94 96 93 82 99 100 100 100 99 99 99 98 99 99 95 66 24 21 17 12 7 6 4 4 3 3 3 3 3 2
49 49 46 35 43 58 70 77 83 88 98 94 93 94 87 86 99 100 100 100 96 98 99 100 99 98 57 23 19 15 10 6 5 4 3 3 3 3 3 3 4 6 12
55 51 44 34 42 63 72 78 84 93 90 86 92 95 92 100 99 100 97 99 100 99 98 88 82 51 23 14 9 6 5 4 4 4 4 4 4 6 11 20 24 25 22
67 68 51 40 43 78 85 85 96 95 98 100 100 100 100 99 99 98 98 98 98 97 94 63 25 16 10 6 5 4 4 4 4 4 7 14 21 23 25 26 25 27 31
65 65 57 50 56 82 95 100 100 100 99 99 100 99 99 99 95 97 97 96 80 26 19 13 8 6 5 4 4 4 4 4 5 16 20 23 35 37 44 45 46 50 52
86 100 99 100 100 98 96 99 100 99 100 99 98 98 98 98 98 94 37 21 15 11 7 6 5 4 4 4 4 4 4 14 19 31 30 36 49 51 57 60 64 64 64
97 98 99 99 99 100 100 100 99 99 98 98 97 100 94 91 52 21 16 10 7 7 6 5 5 5 5 5 5 11 26 30 34 46 41 29 42 31 36 43 56 65 71
99 99 98 98 99 99 98 99 98 97 97 97 93 71 28 18 14 10 8 7 6 5 5 6 6 6 6 11 27 30 37 41 44 49 44 26 29 26 29 35 46 56 68
99 99 99 100 100 99 99 97 97 83 38 24 20 15 11 8 8 7 7 6 5 5 6 7 6 9 26 36 40 44 52 48 44 46 50 32 28 24 23 30 39 50 56
98 98 97 98 98 97 91 41 24 19 15 11 9 8 8 7 6 5 5 5 6 7 7 9 29 38 41 46 55 56 51 53 53 47 59 34 26 30 17 25 33 46 52

GFSMA_700_rhum_066.txt.gz
RH
48 48 49 49 48 48 48 49 49 50 51 51 54 56 53 52 51 50 46 43 39 35 32 32 31 30 32 35 37 37 37 38 38 37 36 34 31 27 23 21 20 19 19
49 50 50 50 50 50 50 50 51 52 53 53 53 54 53 51 50 49 49 46 42 37 34 34 34 35 38 41 42 42 42 41 41 41 41 40 39 37 35 33 30 26 22
53 53 51 49 50 51 51 51 52 54 56 54 54 54 53 51 45 47 49 47 44 40 39 37 37 40 44 46 46 49 45 42 42 41 41 40 40 40 41 39 36 32 28
52 50 47 46 51 52 52 53 55 57 57 55 56 56 52 47 50 51 52 51 45 45 46 41 41 45 48 50 51 55 48 44 44 44 44 43 42 42 41 42 41 38 35
47 45 47 49 52 52 53 56 58 58 56 57 57 54 52 53 56 53 56 55 49 57 55 48 45 49 52 52 53 52 49 47 46 45 46 46 46 46 45 45 44 43 38
47 46 51 55 55 54 55 56 58 58 59 59 56 56 56 59 60 58 62 60 64 66 64 61 56 56 55 54 56 54 52 51 50 49 49 48 48 47 47 47 47 46 41
51 55 56 56 58 57 58 59 61 58 60 61 61 57 60 63 64 64 68 70 72 76 72 75 72 65 61 61 59 58 57 57 56 54 53 52 51 50 49 49 49 48 42
62 60 64 58 56 60 59 58 58 61 65 65 66 64 65 64 65 68 71 77 80 83 81 82 78 73 67 62 59 59 59 60 60 58 57 57 56 54 54 54 52 50 44
52 52 60 67 68 66 61 63 64 66 67 68 68 73 69 66 71 77 73 74 79 85 88 88 82 79 74 69 70 70 72 70 65 62 61 59 58 57 57 56 55 51 44
66 56 64 63 64 70 73 70 70 74 74 70 74 73 74 74 80 85 83 79 75 75 84 88 91 92 88 85 83 73 78 80 77 69 62 62 64 62 62 59 59 55 46
80 77 60 69 66 62 64 67 78 85 85 79 77 80 83 87 86 89 97 95 89 88 92 99 94 98 93 89 89 88 88 76 72 72 73 79 80 77 67 63 61 53 38
63 74 74 76 78 72 67 67 71 78 82 84 85 86 86 87 88 88 99 96 95 87 88 97 93 82 100 95 96 86 87 85 83 85 87 87 83 73 69 66 56 37 25
45 47 54 61 62 64 65 74 76 76 82 90 89 90 94 95 96 95 97 93 99 94 90 100 97 100 98 99 98 99 91 95 94 89 93 93 86 79 68 49 28 23 22
56 60 59 58 58 62 66 66 71 78 81 93 93 93 97 100 100 99 99 100 99 99 100 100 100 100 99 99 99 100 99 99 100 95 94 87 84 69 32 23 22 19 16
47 51 56 62 63 63 65 66 70 78 79 85 96 100 100 100 100 96 99 96 99 96 92 98 100 97 99 99 99 100 99 100 100 93 85 54 25 23 20 16 12 8 7
35 34 34 41 56 64 65 66 68 70 82 90 99 98 100 100 100 99 95 100 100 100 100 100 99 100 98 98 98 99 98 96 92 68 29 23 19 13 10 8 7 6 5
43 42 40 37 38 40 42 52 63 68 70 85 94 100 93 94 100 100 100 100 100 96 100 100 98 99 96 98 98 98 92 86 74 40 17 11 8 6 6 5 4 3 3
51 50 49 46 43 44 44 42 43 69 79 77 84 100 99 99 100 99 99 100 100 100 99 98 98 99 97 96 96 97 90 71 23 9 6 5 4 4 3 3 3 3 4
68 66 64 60 53 50 48 44 40 59 80 85 90 94 100 100 99 99 100 100 99 98 97 98 99 96 96 78 31 17 14 9 6 4 4 4 4 3 4 8 10 11 12
48 47 59 64 59 54 48 46 47 67 89 93 99 99 96 97 100 100 99 99 98 97 98 98 86 52 26 17 11 7 6 5 4 4 4 4 8 14 19 19 20 24 29
55 59 64 69 76 73 69 62 90 86 88 97 100 77 99 99 99 98 98 97 96 97 90 36 18 14 9 7 6 5 5 4 4 5 11 21 25 30 35 37 35 29 25
63 67 80 82 98 78 67 73 100 100 98 95 98 100 99 98 98 98 95 93 58 20 16 11 8 7 6 5 5 5 5 5 9 31 28 34 41 34 30 23 18 19 19
84 80 86 93 99 99 99 98 99 99 98 99 99 96 96 97 96 84 34 19 15 10 8 7 6 5 5 6 6 6 16 26 32 46 38 32 36 21 22 19 22 22 24
84 98 97 98 98 98 98 98 99 98 97 97 97 96 78 35 20 16 12 9 8 7 5 5 6 6 6 7 15 27 32 40 45 45 43 40 31 25 26 22 27 30 35
91 95 96 98 97 97 97 97 97 97 94 62 25 17 13 10 9 8 7 5 5 5 5 5 5 6 13 26 31 41 47 41 40 47 52 49 44 36 37 38 42 50 44
89 89 94 96 96 97 92 67 25 21 15 12 9 8 7 6 4 3 3 3 4 4 5 6 13 23 30 40 46 46 46 45 47 49 63 50 50 55 42 50 54 62 65

GFSMA_700_rhum_069.txt.gz
RH
47 47 48 47 47 48 48 48 48 48 49 50 51 51 54 55 53 52 49 47 47 44 39 35 33 32 31 32 35 37 39 40 39 39 39 38 37 36 35 34 33 30 25
47 48 48 48 49 49 50 49 49 50 50 52 52 53 52 54 53 51 46 43 47 45 43 38 36 35 34 37 41 42 43 43 41 41 40 40 39 39 39 39 39 36 33
48 48 48 50 52 51 50 49 50 50 52 53 54 54 53 54 54 49 43 41 47 48 46 41 43 39 38 41 45 47 54 54 46 43 42 42 42 41 40 39 39 40 40
56 55 54 53 52 50 48 46 50 51 52 54 56 55 55 56 52 46 50 49 44 49 47 47 50 46 42 45 48 49 50 52 48 47 46 44 44 44 43 43 42 41 40
54 55 55 52 50 46 45 48 51 52 54 56 57 56 57 55 51 50 54 53 52 54 50 58 58 55 50 50 54 52 53 52 51 50 49 48 47 46 46 45 45 45 45
49 52 53 49 46 45 47 50 54 54 57 58 58 57 58 55 54 53 56 57 58 63 60 66 67 64 66 66 59 56 54 56 55 54 53 52 51 50 49 48 48 48 48
48 53 54 54 52 53 53 55 56 59 61 60 58 58 59 60 58 55 58 60 61 66 69 71 75 72 74 73 70 68 64 59 55 55 55 55 55 54 53 52 51 50 49
41 48 52 56 65 63 61 56 58 59 61 61 59 64 62 58 58 61 64 66 68 68 73 77 80 81 78 77 73 70 65 64 66 68 70 68 64 61 60 56 54 55 55
43 42 51 56 70 72 73 69 62 62 63 64 63 66 67 62 62 64 72 77 78 75 74 80 82 86 88 86 80 84 82 77 78 73 74 78 75 73 64 61 65 68 65
50 55 55 61 69 82 73 74 76 74 74 71 72 70 70 72 73 72 72 76 84 86 84 84 80 81 89 93 88 87 86 82 81 86 85 84 72 72 73 76 77 76 71
37 60 60 66 68 70 70 79 75 71 71 78 82 83 83 83 82 84 83 81 83 90 95 99 93 94 92 90 99 96 88 95 84 88 88 91 85 82 81 78 80 78 73
34 40 66 72 82 76 78 67 75 79 72 71 72 81 85 90 90 92 98 98 97 90 99 95 93 96 92 94 92 92 89 92 95 89 97 94 98 97 94 84 80 80 78
39 34 38 55 69 76 74 72 71 74 76 80 79 80 81 86 91 97 100 100 99 92 98 100 93 90 95 99 89 99 84 99 99 99 100 100 99 98 92 88 80 76 74
54 51 51 52 52 55 59 60 60 63 64 65 74 77 80 84 92 99 98 100 98 99 98 99 98 99 100 99 90 92 95 100 100 100 100 100 99 96 89 86 70 36 25
39 42 45 47 53 58 61 64 64 68 68 70 72 73 78 89 98 100 100 100 100 99 100 96 98 100 100 99 99 100 100 96 98 100 99 95 98 96 81 39 28 23 18
36 35 39 40 41 46 54 60 67 69 69 70 73 76 84 92 98 98 100 100 99 100 100 100 96 100 100 100 99 99 98 96 96 92 95 97 93 91 78 51 23 13 9
41 42 43 43 43 42 41 42 48 56 63 66 69 74 79 90 89 100 99 100 98 100 99 100 100 99 98 99 98 97 97 95 100 95 100 95 74 36 18 10 7 6 5
56 56 54 51 49 48 47 44 42 42 41 42 49 62 81 89 95 79 90 99 100 100 98 100 100 99 98 98 97 96 96 96 87 43 19 14 8 6 6 5 5 4 3
61 64 68 68 67 65 64 58 51 49 48 44 43 50 78 83 90 92 90 100 97 89 96 100 98 98 96 96 96 95 62 21 14 8 6 5 5 4 4 4 4 6 10
45 42 44 44 47 53 61 64 63 56 53 51 50 71 98 93 95 83 94 93 92 98 95 95 95 93 96 80 35 17 11 7 6 5 5 4 4 6 11 15 20 26 27
38 40 44 48 57 64 67 74 78 72 64 64 86 98 100 100 95 87 95 99 99 96 94 92 99 51 19 13 8 7 6 4 4 4 4 10 18 23 31 33 30 26 19
54 62 67 76 79 89 86 69 72 89 73 69 100 99 99 100 100 98 98 98 97 98 98 35 18 10 8 6 4 4 4 5 8 25 22 34 37 31 32 31 19 14 14
67 70 75 76 85 95 91 90 98 98 99 97 98 96 98 98 96 92 89 96 78 23 14 9 7 5 3 3 4 5 12 21 32 41 34 29 36 34 38 36 24 20 20
68 71 71 73 81 92 90 100 97 97 98 98 98 97 97 81 86 62 27 14 10 8 5 3 2 2 3 5 13 23 32 36 36 35 36 35 42 39 44 44 45 43 46
71 72 78 81 86 85 88 92 94 96 98 83 66 47 24 14 11 9 7 5 3 2 2 2 3 6 14 23 31 34 33 31 32 39 46 43 44 45 46 51 56 61 62
75 76 77 78 81 80 67 34 18 15 11 10 9 7 5 4 3 2 2 2 2 2 3 6 13 22 28 31 32 32 35 38 42 44 54 40 40 44 39 46 52 60 64